Location: West Chester
(39.9610°N, 75.6060°W)
Time: 19:35:07
(UTC-04:00)

ARIANE 6 FM1 Upper Stage - Pass Details

Date: 22 September 2024
Orbit: 563 x 594 km, 62.0° (Epoch: 11 October)

Event Time Altitude Azimuth Distance (km) Brightness Sun altitude
Exits shadow 03:34:31 14° 80° (E) 1,685 5.6 -36.0°
Drops below altitude 10° 03:35:28 10° 90° (E) 1,935 5.9 -35.8°
Sets 03:38:13 0° 107° (ESE) 2,834 6.7 -35.4°
